Welcome to Northern Hawkes Bay. New Zealand.
PWS Header
      nz Flag



Hit Counter


W3C Valid W3C Valid logo


    Wairoa

Select any of the Stations below to visit their websites.










Historic Data from Weather Underground
Select the location of interest below. Wairoa is the default. Please have patience, this Data is slow to load in.
Northern Hawkes Bay Historical Data
Daily Summary for November 27, 2017 Units:  Metric    English   Both
« Previous Day
Next Day »
Daily Weekly Monthly Yearly Custom
  High: Low: Average:
Temperature: 22.7 °C 15.7 °C 18.1 °C
Dew Point: 18.3 °C 7.8 °C 16.5 °C
Humidity: 99% 49% 91%
Wind Speed: 17.2km/h 0.0km/h 2.8km/h
Wind Gust: 23.3km/h - -
Wind- - SSW
Pressure: 1027.3 hPa 990.7 hPa -
Precipitation: 0.0 mm    
Historical Graphs
 
 
Tabular Data for November 27, 2017
Time Temperature Dew Point Pressure Wind Wind Speed Wind Gust Humidity Rainfall Rate (Hourly) solar
00:03 16.8 °C 16.0 °C 1026.3 hPa North 2.6 km/h 5.0 km/h 95% 0.0 mm 0 W/m2
00:08 16.8 °C 16.0 °C 1026.0 hPa North 1.1 km/h 5.0 km/h 95% 0.0 mm 0 W/m2
00:13 16.6 °C 15.8 °C 1026.0 hPa Calm   5.0 km/h 95% 0.0 mm 0 W/m2
00:18 16.6 °C 15.9 °C 1026.0 hPa North 1.1 km/h 5.0 km/h 96% 0.0 mm 0 W/m2
00:34 16.6 °C 15.9 °C 1026.0 hPa NNW 2.6 km/h 7.2 km/h 96% 0.0 mm 0 W/m2
00:39 16.6 °C 15.9 °C 1026.0 hPa NW 2.6 km/h 6.1 km/h 96% 0.0 mm 0 W/m2
00:44 16.6 °C 15.9 °C 1025.6 hPa NNW 3.5 km/h 6.1 km/h 96% 0.0 mm 0 W/m2
00:49 16.6 °C 15.9 °C 1025.6 hPa NNW 5.0 km/h 7.2 km/h 96% 0.0 mm 0 W/m2
00:54 16.6 °C 15.9 °C 1025.6 hPa NNW 5.0 km/h 7.2 km/h 96% 0.0 mm 0 W/m2
00:59 16.5 °C 15.9 °C 1026.0 hPa NW 6.1 km/h 8.7 km/h 96% 0.0 mm 0 W/m2
01:04 16.4 °C 15.8 °C 1025.6 hPa NW 2.6 km/h 9.7 km/h 96% 0.0 mm 0 W/m2
01:09 16.4 °C 15.9 °C 1025.6 hPa NW 3.5 km/h 9.7 km/h 97% 0.0 mm 0 W/m2
01:14 16.4 °C 15.9 °C 1025.6 hPa Calm   7.2 km/h 97% 0.0 mm 0 W/m2
01:19 16.4 °C 15.9 °C 1025.6 hPa Calm   6.1 km/h 97% 0.0 mm 0 W/m2
01:24 16.3 °C 15.8 °C 1025.6 hPa Calm   2.6 km/h 97% 0.0 mm 0 W/m2
01:29 16.3 °C 15.8 °C 1025.6 hPa Calm   1.1 km/h 97% 0.0 mm 0 W/m2
01:34 16.3 °C 15.8 °C 1025.6 hPa Calm   3.5 km/h 97% 0.0 mm 0 W/m2
01:39 16.2 °C 15.7 °C 1025.3 hPa Calm   3.5 km/h 97% 0.0 mm 0 W/m2
01:44 16.2 °C 15.7 °C 1025.3 hPa Calm     97% 0.0 mm 0 W/m2
01:49 16.1 °C 15.6 °C 1025.3 hPa Calm     97% 0.0 mm 0 W/m2
01:54 16.1 °C 15.6 °C 1025.3 hPa Calm     97% 0.0 mm 0 W/m2
01:59 16.1 °C 15.6 °C 1025.3 hPa Calm     97% 0.0 mm 0 W/m2
02:04 16.1 °C 15.6 °C 1025.3 hPa Calm     97% 0.0 mm 0 W/m2
02:09 16.1 °C 15.6 °C 1025.3 hPa Calm     97% 0.0 mm 0 W/m2
02:14 16.1 °C 15.6 °C 1025.3 hPa Calm   1.1 km/h 97% 0.0 mm 0 W/m2
02:19 16.1 °C 15.6 °C 1025.3 hPa NE 1.1 km/h 2.6 km/h 97% 0.0 mm 0 W/m2
02:24 16.1 °C 15.8 °C 1025.3 hPa Calm   2.6 km/h 98% 0.0 mm 0 W/m2
02:29 16.1 °C 15.8 °C 1025.3 hPa Calm   2.6 km/h 98% 0.0 mm 0 W/m2
02:45 16.0 °C 15.7 °C 1025.3 hPa Calm     98% 0.0 mm 0 W/m2
02:50 16.0 °C 15.7 °C 1024.9 hPa Calm   1.1 km/h 98% 0.0 mm 0 W/m2
02:55 16.0 °C 15.7 °C 1025.3 hPa Calm   1.1 km/h 98% 0.0 mm 0 W/m2
03:00 16.0 °C 15.7 °C 1025.3 hPa Calm   2.6 km/h 98% 0.0 mm 0 W/m2
03:05 16.0 °C 15.7 °C 1025.3 hPa Calm   3.5 km/h 98% 0.0 mm 0 W/m2
03:10 16.1 °C 15.8 °C 1025.3 hPa NNW 1.1 km/h 5.0 km/h 98% 0.0 mm 0 W/m2
03:15 16.1 °C 15.8 °C 1025.3 hPa North 1.1 km/h 5.0 km/h 98% 0.0 mm 0 W/m2
03:20 16.1 °C 15.8 °C 1025.3 hPa NNW 2.6 km/h 3.5 km/h 98% 0.0 mm 0 W/m2
03:25 16.1 °C 15.8 °C 1025.3 hPa NNW 1.1 km/h 3.5 km/h 98% 0.0 mm 0 W/m2
03:31 16.1 °C 15.8 °C 1024.9 hPa Calm   3.5 km/h 98% 0.0 mm 0 W/m2
03:36 16.0 °C 15.7 °C 1024.9 hPa NNW 1.1 km/h 3.5 km/h 98% 0.0 mm 0 W/m2
03:41 16.0 °C 15.7 °C 1024.9 hPa Calm   3.5 km/h 98% 0.0 mm 0 W/m2
03:47 16.0 °C 15.7 °C 1024.9 hPa Calm   2.6 km/h 98% 0.0 mm 0 W/m2
03:52 15.9 °C 15.8 °C 1024.9 hPa Calm   3.5 km/h 99% 0.0 mm 0 W/m2
03:57 15.9 °C 15.8 °C 1024.9 hPa Calm   3.5 km/h 99% 0.0 mm 0 W/m2
04:02 15.9 °C 15.8 °C 1024.9 hPa NW 1.1 km/h 2.6 km/h 99% 0.0 mm 0 W/m2
04:07 15.8 °C 15.7 °C 1024.9 hPa NNW 1.1 km/h 2.6 km/h 99% 0.0 mm 0 W/m2
04:12 15.8 °C 15.7 °C 1024.9 hPa Calm   2.6 km/h 99% 0.0 mm 0 W/m2
04:17 15.8 °C 15.7 °C 1024.9 hPa Calm   2.6 km/h 99% 0.0 mm 0 W/m2
04:22 15.8 °C 15.7 °C 1024.9 hPa Calm     99% 0.0 mm 0 W/m2
04:27 15.8 °C 15.7 °C 1024.9 hPa Calm   1.1 km/h 99% 0.0 mm 0 W/m2
04:33 15.8 °C 15.7 °C 1024.9 hPa Calm   2.6 km/h 99% 0.0 mm 0 W/m2
04:38 15.8 °C 15.7 °C 1024.9 hPa NW 1.1 km/h 3.5 km/h 99% 0.0 mm 0 W/m2
04:43 15.8 °C 15.7 °C 1024.9 hPa NW 1.1 km/h 3.5 km/h 99% 0.0 mm 0 W/m2
04:48 15.7 °C 15.6 °C 1024.9 hPa NW 1.1 km/h 3.5 km/h 99% 0.0 mm 0 W/m2
04:53 15.7 °C 15.6 °C 1024.9 hPa NW 1.1 km/h 3.5 km/h 99% 0.0 mm 0 W/m2
04:58 15.7 °C 15.6 °C 1024.9 hPa Calm   3.5 km/h 99% 0.0 mm 0 W/m2
05:03 15.7 °C 15.6 °C 1024.9 hPa Calm   2.6 km/h 99% 0.0 mm 0 W/m2
05:08 15.7 °C 15.6 °C 1024.9 hPa Calm   2.6 km/h 99% 0.0 mm 0 W/m2
05:13 15.7 °C 15.6 °C 1024.9 hPa Calm   2.6 km/h 99% 0.0 mm 0 W/m2
05:18 15.7 °C 15.6 °C 1024.9 hPa Calm   2.6 km/h 99% 0.0 mm 0 W/m2
05:23 15.7 °C 15.6 °C 1025.3 hPa Calm   2.6 km/h 99% 0.0 mm 0 W/m2
05:28 15.7 °C 15.6 °C 1024.9 hPa Calm   1.1 km/h 99% 0.0 mm 0 W/m2
05:33 15.7 °C 15.6 °C 1024.9 hPa Calm   1.1 km/h 99% 0.0 mm 0 W/m2
05:38 15.7 °C 15.6 °C 1024.9 hPa Calm     99% 0.0 mm 0 W/m2
05:43 15.7 °C 15.6 °C 1024.9 hPa Calm     99% 0.0 mm 0 W/m2
05:48 15.7 °C 15.6 °C 1024.9 hPa NW 2.6 km/h 3.5 km/h 99% 0.0 mm 0 W/m2
05:53 15.7 °C 15.6 °C 1024.9 hPa NNW 2.6 km/h 5.0 km/h 99% 0.0 mm 0 W/m2
05:58 15.7 °C 15.6 °C 1025.3 hPa Calm   5.0 km/h 99% 0.0 mm 2 W/m2
06:03 15.7 °C 15.6 °C 1025.3 hPa North 1.1 km/h 3.5 km/h 99% 0.0 mm 4 W/m2
06:08 15.8 °C 15.7 °C 1025.3 hPa Calm   3.5 km/h 99% 0.0 mm 4 W/m2
06:13 15.8 °C 15.7 °C 1025.3 hPa NNE 2.6 km/h 5.0 km/h 99% 0.0 mm 6 W/m2
06:18 15.9 °C 15.8 °C 1025.3 hPa NNE 1.1 km/h 5.0 km/h 99% 0.0 mm 8 W/m2
06:23 15.9 °C 15.8 °C 1025.3 hPa NNE 2.6 km/h 6.1 km/h 99% 0.0 mm 10 W/m2
06:29 15.9 °C 15.8 °C 1025.3 hPa Calm   6.1 km/h 99% 0.0 mm 16 W/m2
06:34 16.0 °C 15.7 °C 1025.3 hPa Calm   2.6 km/h 98% 0.0 mm 20 W/m2
06:39 16.1 °C 15.8 °C 1025.3 hPa North 2.6 km/h 2.6 km/h 98% 0.0 mm 22 W/m2
06:44 16.1 °C 15.8 °C 1025.3 hPa North 1.1 km/h 3.5 km/h 98% 0.0 mm 28 W/m2
06:49 16.2 °C 15.9 °C 1025.3 hPa North 1.1 km/h 3.5 km/h 98% 0.0 mm 27 W/m2
06:54 16.3 °C 16.0 °C 1025.3 hPa NNW 3.5 km/h 5.0 km/h 98% 0.0 mm 24 W/m2
06:59 16.3 °C 16.0 °C 1025.3 hPa NW 3.5 km/h 5.0 km/h 98% 0.0 mm 22 W/m2
07:04 16.3 °C 16.0 °C 1025.3 hPa NNW 2.6 km/h 5.0 km/h 98% 0.0 mm 21 W/m2
07:09 16.3 °C 16.0 °C 1025.3 hPa Calm   5.0 km/h 98% 0.0 mm 20 W/m2
07:14 16.3 °C 16.0 °C 1025.6 hPa Calm   5.0 km/h 98% 0.0 mm 21 W/m2
07:19 16.4 °C 16.1 °C 1025.6 hPa NNW 1.1 km/h 3.5 km/h 98% 0.0 mm 24 W/m2
07:24 16.4 °C 16.1 °C 1025.6 hPa NW 2.6 km/h 5.0 km/h 98% 0.0 mm 27 W/m2
07:29 16.4 °C 16.1 °C 1025.6 hPa NW 3.5 km/h 6.1 km/h 98% 0.0 mm 29 W/m2
07:34 16.4 °C 16.1 °C 1025.6 hPa NW 1.1 km/h 6.1 km/h 98% 0.0 mm 38 W/m2
07:39 16.5 °C 16.2 °C 1025.6 hPa NNW 3.5 km/h 6.1 km/h 98% 0.0 mm 50 W/m2
07:44 16.5 °C 16.2 °C 1025.6 hPa NNW 1.1 km/h 5.0 km/h 98% 0.0 mm 65 W/m2
07:49 16.6 °C 16.3 °C 1025.6 hPa NNW 3.5 km/h 8.7 km/h 98% 0.0 mm 70 W/m2
07:54 16.6 °C 16.3 °C 1025.6 hPa NNW 5.0 km/h 8.7 km/h 98% 0.0 mm 80 W/m2
07:59 16.8 °C 16.5 °C 1026.0 hPa North 2.6 km/h 8.7 km/h 98% 0.0 mm 90 W/m2
08:04 16.9 °C 16.4 °C 1026.0 hPa NNE 2.6 km/h 7.2 km/h 97% 0.0 mm 103 W/m2
08:09 17.2 °C 16.6 °C 1026.0 hPa North 2.6 km/h 7.2 km/h 96% 0.0 mm 119 W/m2
08:14 17.5 °C 16.7 °C 1026.0 hPa North 2.6 km/h 5.0 km/h 95% 0.0 mm 137 W/m2
08:19 17.7 °C 16.7 °C 1026.0 hPa North 3.5 km/h 5.0 km/h 94% 0.0 mm 154 W/m2
08:24 17.9 °C 16.8 °C 1026.0 hPa NNW 2.6 km/h 5.0 km/h 93% 0.0 mm 164 W/m2
08:29 18.1 °C 16.8 °C 1026.0 hPa Calm   5.0 km/h 92% 0.0 mm 160 W/m2
08:34 18.7 °C 17.2 °C 1026.0 hPa North 2.6 km/h 3.5 km/h 91% 0.0 mm 149 W/m2
08:39 18.7 °C 16.9 °C 1026.0 hPa NW 1.1 km/h 3.5 km/h 89% 0.0 mm 129 W/m2
08:44 18.9 °C 17.1 °C 1026.0 hPa WSW 1.1 km/h 3.5 km/h 89% 0.0 mm 114 W/m2
08:49 19.0 °C 16.8 °C 1026.3 hPa Calm   3.5 km/h 87% 0.0 mm 109 W/m2
08:59 18.9 °C 16.9 °C 1026.3 hPa Calm   5.0 km/h 88% 0.0 mm 119 W/m2
09:04 18.9 °C 16.7 °C 1026.3 hPa Calm   5.0 km/h 87% 0.0 mm 120 W/m2
09:09 18.9 °C 16.7 °C 1026.6 hPa Calm   3.5 km/h 87% 0.0 mm 128 W/m2
09:14 19.3 °C 16.9 °C 1026.6 hPa Calm   1.1 km/h 86% 0.0 mm 130 W/m2
09:19 19.7 °C 17.3 °C 1026.3 hPa Calm   1.1 km/h 86% 0.0 mm 132 W/m2
09:29 19.7 °C 16.9 °C 1026.3 hPa Calm   3.5 km/h 84% 0.0 mm 134 W/m2
09:34 19.8 °C 17.1 °C 1026.6 hPa East 2.6 km/h 5.0 km/h 84% 0.0 mm 140 W/m2
09:39 19.8 °C 17.1 °C 1026.6 hPa Calm   5.0 km/h 84% 0.0 mm 149 W/m2
09:44 19.9 °C 17.1 °C 1026.6 hPa SE 1.1 km/h 5.0 km/h 84% 0.0 mm 182 W/m2
09:49 20.0 °C 17.1 °C 1026.6 hPa SE 1.1 km/h 5.0 km/h 83% 0.0 mm 243 W/m2
09:54 20.2 °C 17.2 °C 1026.6 hPa SE 3.5 km/h 6.1 km/h 83% 0.0 mm 277 W/m2
09:59 20.4 °C 17.2 °C 1026.6 hPa SE 2.6 km/h 7.2 km/h 82% 0.0 mm 296 W/m2
10:04 20.5 °C 17.6 °C 1026.6 hPa SE 2.6 km/h 7.2 km/h 83% 0.0 mm 304 W/m2
10:09 20.5 °C 17.3 °C 1026.6 hPa SSE 7.2 km/h 8.7 km/h 82% 0.0 mm 291 W/m2
10:25 21.0 °C 17.4 °C 1026.6 hPa SE 1.1 km/h 6.1 km/h 80% 0.0 mm 327 W/m2
10:30 21.0 °C 17.4 °C 1026.6 hPa SE 1.1 km/h 6.1 km/h 80% 0.0 mm 327 W/m2
10:35 21.0 °C 17.4 °C 1026.6 hPa SE 1.1 km/h 6.1 km/h 80% 0.0 mm 327 W/m2
10:40 21.0 °C 17.4 °C 1026.6 hPa SE 1.1 km/h 6.1 km/h 80% 0.0 mm 327 W/m2
10:45 21.0 °C 17.4 °C 1026.6 hPa SE 1.1 km/h 6.1 km/h 80% 0.0 mm 327 W/m2
10:50 21.0 °C 17.4 °C 1026.6 hPa SE 1.1 km/h 6.1 km/h 80% 0.0 mm 327 W/m2
10:56 21.0 °C 17.4 °C 1026.6 hPa SE 1.1 km/h 6.1 km/h 80% 0.0 mm 327 W/m2
11:01 21.0 °C 17.4 °C 1026.6 hPa SE 1.1 km/h 6.1 km/h 80% 0.0 mm 327 W/m2
11:06 21.0 °C 17.4 °C 1026.6 hPa SE 1.1 km/h 6.1 km/h 80% 0.0 mm 327 W/m2
11:11 21.0 °C 17.4 °C 1026.6 hPa SE 1.1 km/h 6.1 km/h 80% 0.0 mm 327 W/m2
11:16 21.0 °C 17.4 °C 1026.6 hPa SE 1.1 km/h 6.1 km/h 80% 0.0 mm 327 W/m2
11:21 21.0 °C 17.4 °C 1026.6 hPa SE 1.1 km/h 6.1 km/h 80% 0.0 mm 327 W/m2
11:26 21.0 °C 17.4 °C 1026.6 hPa SE 1.1 km/h 6.1 km/h 80% 0.0 mm 327 W/m2
11:31 21.0 °C 17.4 °C 1026.6 hPa SE 1.1 km/h 6.1 km/h 80% 0.0 mm 327 W/m2
11:36 21.0 °C 17.4 °C 1026.6 hPa SE 1.1 km/h 6.1 km/h 80% 0.0 mm 327 W/m2
11:41 21.0 °C 17.4 °C 1026.6 hPa SE 1.1 km/h 6.1 km/h 80% 0.0 mm 327 W/m2
11:46 21.0 °C 17.4 °C 1026.6 hPa SE 1.1 km/h 6.1 km/h 80% 0.0 mm 327 W/m2
11:51 21.0 °C 17.4 °C 1026.6 hPa SE 1.1 km/h 6.1 km/h 80% 0.0 mm 327 W/m2
11:56 21.0 °C 17.4 °C 1026.6 hPa SE 1.1 km/h 6.1 km/h 80% 0.0 mm 327 W/m2
12:01 21.0 °C 17.4 °C 1026.6 hPa SE 1.1 km/h 6.1 km/h 80% 0.0 mm 327 W/m2
12:06 21.0 °C 17.4 °C 1026.6 hPa SE 1.1 km/h 6.1 km/h 80% 0.0 mm 327 W/m2
12:11 21.0 °C 17.4 °C 1026.6 hPa SE 1.1 km/h 6.1 km/h 80% 0.0 mm 327 W/m2
12:16 21.0 °C 17.4 °C 1026.6 hPa SE 1.1 km/h 6.1 km/h 80% 0.0 mm 327 W/m2
12:21 21.0 °C 17.4 °C 1026.6 hPa SE 1.1 km/h 6.1 km/h 80% 0.0 mm 327 W/m2
12:26 21.0 °C 17.4 °C 1026.6 hPa SE 1.1 km/h 6.1 km/h 80% 0.0 mm 327 W/m2
12:31 21.0 °C 17.4 °C 1026.6 hPa SE 1.1 km/h 6.1 km/h 80% 0.0 mm 327 W/m2
12:36 21.0 °C 17.4 °C 1026.6 hPa SE 1.1 km/h 6.1 km/h 80% 0.0 mm 327 W/m2
12:44 18.8 °C 7.8 °C 990.7 hPa SE 7.2 km/h 14.8 km/h 49% 0.0 mm 308 W/m2
12:50 21.3 °C 16.5 °C 1025.6 hPa SSW 13.4 km/h 17.2 km/h 74% 0.0 mm 0 W/m2
12:56 20.9 °C 16.5 °C 1025.6 hPa South 11.1 km/h 17.2 km/h 76% 0.0 mm 0 W/m2
13:02 21.2 °C 17.0 °C 1025.6 hPa South 6.1 km/h 17.2 km/h 77% 0.0 mm 0 W/m2
13:07 21.3 °C 16.7 °C 1025.3 hPa South 7.2 km/h 15.8 km/h 75% 0.0 mm 0 W/m2
13:12 21.3 °C 16.9 °C 1025.3 hPa South 11.1 km/h 17.2 km/h 76% 0.0 mm 0 W/m2
13:17 21.5 °C 16.9 °C 1025.6 hPa South 11.1 km/h 17.2 km/h 75% 0.0 mm 0 W/m2
13:22 21.5 °C 16.9 °C 1025.6 hPa South 13.4 km/h 18.3 km/h 75% 0.0 mm 0 W/m2
13:27 21.4 °C 16.6 °C 1025.6 hPa South 12.2 km/h 18.3 km/h 74% 0.0 mm 0 W/m2
13:33 21.3 °C 16.5 °C 1025.3 hPa South 8.7 km/h 18.3 km/h 74% 0.0 mm 0 W/m2
13:53 21.2 °C 16.6 °C 1025.3 hPa SSE 6.1 km/h 17.2 km/h 75% 0.0 mm 0 W/m2
13:58 21.4 °C 16.6 °C 1025.3 hPa SSE 5.0 km/h 18.3 km/h 74% 0.0 mm 0 W/m2
14:03 21.8 °C 17.4 °C 1025.3 hPa SSE 12.2 km/h 18.3 km/h 76% 0.0 mm 759 W/m2
14:08 22.0 °C 17.6 °C 1025.3 hPa South 13.4 km/h 18.3 km/h 76% 0.0 mm 803 W/m2
14:13 21.9 °C 17.9 °C 1025.3 hPa SSW 8.7 km/h 18.3 km/h 78% 0.0 mm 480 W/m2
14:18 21.5 °C 17.7 °C 1025.3 hPa South 8.7 km/h 18.3 km/h 79% 0.0 mm 639 W/m2
14:23 21.6 °C 18.2 °C 1025.3 hPa South 11.1 km/h 14.8 km/h 81% 0.0 mm 740 W/m2
14:28 22.1 °C 18.3 °C 1024.9 hPa South 7.2 km/h 14.8 km/h 79% 0.0 mm 763 W/m2
14:33 22.2 °C 17.4 °C 1024.9 hPa South 8.7 km/h 19.5 km/h 74% 0.0 mm 728 W/m2
14:43 22.7 °C 17.2 °C 1024.9 hPa SE 5.0 km/h 18.3 km/h 71% 0.0 mm 753 W/m2
15:00 22.1 °C 17.3 °C 1024.9 hPa ESE 13.4 km/h 23.3 km/h 74% 0.0 mm 633 W/m2
15:19 20.2 °C 17.6 °C 1024.9 hPa SSE 5.0 km/h 19.5 km/h 85% 0.0 mm 232 W/m2
15:24 20.1 °C 17.3 °C 1024.9 hPa SSE 5.0 km/h 14.8 km/h 84% 0.0 mm 273 W/m2
15:29 20.1 °C 17.5 °C 1024.9 hPa SSE 8.7 km/h 17.2 km/h 85% 0.0 mm 307 W/m2
15:34 20.2 °C 17.6 °C 1024.9 hPa SSE 9.7 km/h 17.2 km/h 85% 0.0 mm 393 W/m2
15:39 20.7 °C 17.9 °C 1025.3 hPa South 9.7 km/h 15.8 km/h 84% 0.0 mm 449 W/m2
15:51 20.9 °C 17.9 °C 1024.9 hPa South 9.7 km/h 17.2 km/h 83% 0.0 mm 371 W/m2
15:57 20.6 °C 17.4 °C 1024.9 hPa SSE 9.7 km/h 13.4 km/h 82% 0.0 mm 210 W/m2
16:02 20.3 °C 17.2 °C 1025.3 hPa SE 3.5 km/h 13.4 km/h 82% 0.0 mm 184 W/m2
16:07 20.1 °C 16.9 °C 1025.3 hPa SE 3.5 km/h 15.8 km/h 82% 0.0 mm 141 W/m2
16:12 20.0 °C 17.1 °C 1025.3 hPa SSE 2.6 km/h 15.8 km/h 83% 0.0 mm 134 W/m2
16:18 19.8 °C 17.1 °C 1025.3 hPa Calm   14.8 km/h 84% 0.0 mm 140 W/m2
16:23 19.7 °C 17.1 °C 1025.3 hPa South 3.5 km/h 14.8 km/h 85% 0.0 mm 133 W/m2
16:28 19.6 °C 17.0 °C 1025.3 hPa South 6.1 km/h 13.4 km/h 85% 0.0 mm 123 W/m2
16:33 19.5 °C 16.9 °C 1025.3 hPa SSE 3.5 km/h 17.2 km/h 85% 0.0 mm 119 W/m2
16:38 19.5 °C 16.9 °C 1025.3 hPa South 5.0 km/h 17.2 km/h 85% 0.0 mm 127 W/m2
16:43 19.4 °C 16.8 °C 1025.3 hPa SSW 7.2 km/h 12.2 km/h 85% 0.0 mm 137 W/m2
16:48 19.4 °C 16.8 °C 1025.3 hPa South 5.0 km/h 12.2 km/h 85% 0.0 mm 136 W/m2
16:53 19.4 °C 17.0 °C 1025.3 hPa South 3.5 km/h 12.2 km/h 86% 0.0 mm 137 W/m2
16:58 19.5 °C 16.9 °C 1025.3 hPa South 5.0 km/h 12.2 km/h 85% 0.0 mm 136 W/m2
17:03 19.5 °C 16.9 °C 1025.3 hPa South 7.2 km/h 12.2 km/h 85% 0.0 mm 134 W/m2
17:08 19.5 °C 16.9 °C 1025.6 hPa South 5.0 km/h 12.2 km/h 85% 0.0 mm 109 W/m2
17:13 19.5 °C 16.9 °C 1025.3 hPa South 7.2 km/h 11.1 km/h 85% 0.0 mm 87 W/m2
17:18 19.4 °C 16.8 °C 1025.6 hPa South 7.2 km/h 11.1 km/h 85% 0.0 mm 94 W/m2
17:23 19.3 °C 16.9 °C 1025.6 hPa South 7.2 km/h 11.1 km/h 86% 0.0 mm 96 W/m2
17:28 19.2 °C 16.6 °C 1025.6 hPa SSW 2.6 km/h 11.1 km/h 85% 0.0 mm 81 W/m2
17:44 19.1 °C 16.7 °C 1025.6 hPa SSW 11.1 km/h 12.2 km/h 86% 0.0 mm 90 W/m2
18:00 18.7 °C 16.7 °C 1026.0 hPa SSW 3.5 km/h 12.2 km/h 88% 0.0 mm 45 W/m2
18:05 18.6 °C 16.8 °C 1026.0 hPa SSW 6.1 km/h 11.1 km/h 89% 0.0 mm 36 W/m2
18:10 18.4 °C 16.6 °C 1026.0 hPa WSW 17.2 km/h 20.9 km/h 89% 0.0 mm 36 W/m2
18:15 18.3 °C 16.4 °C 1026.0 hPa WSW 5.0 km/h 20.9 km/h 89% 0.0 mm 41 W/m2
18:20 18.2 °C 16.4 °C 1026.0 hPa WSW 13.4 km/h 20.9 km/h 89% 0.0 mm 45 W/m2
18:25 18.3 °C 16.4 °C 1026.0 hPa SW 9.7 km/h 20.9 km/h 89% 0.0 mm 43 W/m2
18:30 18.4 °C 16.6 °C 1026.3 hPa SW 8.7 km/h 20.9 km/h 89% 0.0 mm 41 W/m2
18:36 18.4 °C 16.9 °C 1026.3 hPa SW 12.2 km/h 21.9 km/h 91% 0.0 mm 31 W/m2
18:41 18.3 °C 16.8 °C 1026.0 hPa WSW 12.2 km/h 21.9 km/h 91% 0.0 mm 34 W/m2
18:46 18.3 °C 17.0 °C 1026.0 hPa WSW 7.2 km/h 17.2 km/h 92% 0.0 mm 41 W/m2
18:51 18.4 °C 17.3 °C 1026.3 hPa WSW 7.2 km/h 17.2 km/h 93% 0.0 mm 47 W/m2
18:56 18.4 °C 17.4 °C 1026.3 hPa SW 6.1 km/h 15.8 km/h 94% 0.0 mm 47 W/m2
19:01 18.4 °C 17.4 °C 1026.3 hPa SSW 7.2 km/h 13.4 km/h 94% 0.0 mm 47 W/m2
19:06 18.4 °C 17.4 °C 1026.3 hPa SSW 7.2 km/h 13.4 km/h 94% 0.0 mm 47 W/m2
19:11 18.3 °C 17.3 °C 1026.3 hPa South 6.1 km/h 13.4 km/h 94% 0.0 mm 43 W/m2
19:16 18.2 °C 17.2 °C 1026.6 hPa SSW 7.2 km/h 12.2 km/h 94% 0.0 mm 40 W/m2
19:21 18.2 °C 17.2 °C 1026.6 hPa SSW 5.0 km/h 12.2 km/h 94% 0.0 mm 38 W/m2
19:26 18.1 °C 17.1 °C 1026.3 hPa South 5.0 km/h 12.2 km/h 94% 0.0 mm 33 W/m2
19:31 18.1 °C 17.3 °C 1026.3 hPa South 3.5 km/h 9.7 km/h 95% 0.0 mm 25 W/m2
19:36 18.0 °C 17.2 °C 1026.6 hPa South 2.6 km/h 8.7 km/h 95% 0.0 mm 17 W/m2
19:41 17.9 °C 16.9 °C 1026.6 hPa Calm   7.2 km/h 94% 0.0 mm 11 W/m2
19:51 17.8 °C 16.8 °C 1026.6 hPa Calm   2.6 km/h 94% 0.0 mm 5 W/m2
19:56 17.8 °C 16.7 °C 1026.6 hPa Calm   1.1 km/h 93% 0.0 mm 3 W/m2
20:01 17.7 °C 16.6 °C 1026.6 hPa NNE 1.1 km/h 3.5 km/h 93% 0.0 mm 0 W/m2
20:06 17.7 °C 16.6 °C 1027.0 hPa North 2.6 km/h 5.0 km/h 93% 0.0 mm 0 W/m2
20:11 17.7 °C 16.6 °C 1027.0 hPa NNW 1.1 km/h 5.0 km/h 93% 0.0 mm 0 W/m2
20:16 17.7 °C 16.6 °C 1027.0 hPa NNW 2.6 km/h 5.0 km/h 93% 0.0 mm 0 W/m2
20:21 17.7 °C 16.7 °C 1027.0 hPa NNW 2.6 km/h 5.0 km/h 94% 0.0 mm 0 W/m2
20:26 17.7 °C 16.7 °C 1027.0 hPa NNW 1.1 km/h 5.0 km/h 94% 0.0 mm 0 W/m2
20:30 17.7 °C 16.7 °C 1027.0 hPa NW 1.1 km/h 6.1 km/h 94% 0.0 mm 0 W/m2
20:36 17.7 °C 16.7 °C 1027.0 hPa NW 1.1 km/h 6.1 km/h 94% 0.0 mm 0 W/m2
20:41 17.7 °C 16.7 °C 1027.0 hPa NNW 1.1 km/h 6.1 km/h 94% 0.0 mm 0 W/m2
20:46 17.7 °C 16.9 °C 1027.0 hPa NW 3.5 km/h 6.1 km/h 95% 0.0 mm 0 W/m2
20:51 17.7 °C 16.9 °C 1027.0 hPa NNW 2.6 km/h 5.0 km/h 95% 0.0 mm 0 W/m2
20:56 17.7 °C 16.9 °C 1027.0 hPa Calm   5.0 km/h 95% 0.0 mm 0 W/m2
21:01 17.7 °C 16.9 °C 1027.0 hPa NNW 1.1 km/h 5.0 km/h 95% 0.0 mm 0 W/m2
21:06 17.6 °C 16.9 °C 1027.0 hPa Calm   5.0 km/h 96% 0.0 mm 0 W/m2
21:11 17.5 °C 16.9 °C 1027.0 hPa Calm   3.5 km/h 96% 0.0 mm 0 W/m2
21:16 17.5 °C 16.9 °C 1027.0 hPa Calm   2.6 km/h 96% 0.0 mm 0 W/m2
21:21 17.4 °C 16.8 °C 1027.0 hPa Calm   2.6 km/h 96% 0.0 mm 0 W/m2
21:26 17.4 °C 16.8 °C 1026.6 hPa Calm   1.1 km/h 96% 0.0 mm 0 W/m2
21:31 17.3 °C 16.7 °C 1026.6 hPa SSW 1.1 km/h 5.0 km/h 96% 0.0 mm 0 W/m2
21:36 17.3 °C 16.7 °C 1026.6 hPa SSW 2.6 km/h 5.0 km/h 96% 0.0 mm 0 W/m2
21:41 17.2 °C 16.6 °C 1026.6 hPa Calm   3.5 km/h 96% 0.0 mm 0 W/m2
21:46 17.2 °C 16.6 °C 1026.6 hPa South 1.1 km/h 3.5 km/h 96% 0.0 mm 0 W/m2
21:50 17.2 °C 16.7 °C 1026.6 hPa Calm   2.6 km/h 97% 0.0 mm 0 W/m2
21:56 17.0 °C 16.6 °C 1027.0 hPa Calm   2.6 km/h 97% 0.0 mm 0 W/m2
22:00 17.0 °C 16.6 °C 1026.6 hPa Calm     97% 0.0 mm 0 W/m2
22:06 17.0 °C 16.4 °C 1027.0 hPa North 1.1 km/h 2.6 km/h 96% 0.0 mm 0 W/m2
22:11 17.0 °C 16.6 °C 1027.0 hPa North 1.1 km/h 3.5 km/h 97% 0.0 mm 0 W/m2
22:16 17.0 °C 16.6 °C 1027.0 hPa NNE 1.1 km/h 5.0 km/h 97% 0.0 mm 0 W/m2
22:20 17.0 °C 16.6 °C 1027.0 hPa NNE 1.1 km/h 5.0 km/h 97% 0.0 mm 0 W/m2
22:26 17.0 °C 16.6 °C 1027.3 hPa NE 2.6 km/h 5.0 km/h 97% 0.0 mm 0 W/m2
22:30 16.9 °C 16.6 °C 1027.0 hPa NNE 2.6 km/h 5.0 km/h 98% 0.0 mm 0 W/m2
22:36 16.9 °C 16.6 °C 1027.0 hPa Calm   5.0 km/h 98% 0.0 mm 0 W/m2
22:40 16.9 °C 16.6 °C 1027.3 hPa NNE 3.5 km/h 5.0 km/h 98% 0.0 mm 0 W/m2
22:46 16.9 °C 16.6 °C 1027.3 hPa North 2.6 km/h 5.0 km/h 98% 0.0 mm 0 W/m2
22:50 16.9 °C 16.6 °C 1027.3 hPa North 1.1 km/h 5.0 km/h 98% 0.0 mm 0 W/m2
22:55 16.9 °C 16.6 °C 1027.3 hPa Calm   5.0 km/h 98% 0.0 mm 0 W/m2
23:01 16.8 °C 16.5 °C 1027.3 hPa Calm   3.5 km/h 98% 0.0 mm 0 W/m2
23:06 16.7 °C 16.4 °C 1027.0 hPa Calm   1.1 km/h 98% 0.0 mm 0 W/m2
23:11 16.8 °C 16.5 °C 1027.0 hPa Calm   1.1 km/h 98% 0.0 mm 0 W/m2
23:16 16.8 °C 16.5 °C 1027.0 hPa Calm   1.1 km/h 98% 0.0 mm 0 W/m2
23:21 16.8 °C 16.5 °C 1027.0 hPa Calm   1.1 km/h 98% 0.0 mm 0 W/m2
23:26 17.2 °C 16.7 °C 1027.3 hPa Calm   1.1 km/h 97% 0.0 mm 0 W/m2
23:31 16.6 °C 16.3 °C 1027.0 hPa Calm   1.1 km/h 98% 0.0 mm 0 W/m2
23:35 16.6 °C 16.3 °C 1027.0 hPa Calm   1.1 km/h 98% 0.0 mm 0 W/m2
23:41 16.6 °C 16.3 °C 1027.0 hPa Calm     98% 0.0 mm 0 W/m2
23:45 16.6 °C 16.3 °C 1027.0 hPa Calm     98% 0.0 mm 0 W/m2
23:51 16.6 °C 16.3 °C 1027.3 hPa Calm     98% 0.0 mm 0 W/m2
23:56 16.6 °C 16.3 °C 1027.0 hPa Calm   3.5 km/h 98% 0.0 mm 0 W/m2
Northern Hawkes Bay. New Zealand Historic Data
Compliments of Weather Underground - 2 mb